Crumpsall, United Kingdom
Current Conditions -  °F | °C
As of 4:50 PM on Thursday 27 Nov 2014 (Local Time) from EGCC Reporting Station
Broken Clouds Broken Clouds  
Wind Chill: 46°   Ceiling: 1000
Heat Index: 46°   Visibility: 4mi
Dew Point: 46°   Wind: 2mph
Humidity: 100%   Direction: NA
Pressure: 29.56"   Gusts: NA
Location:  53.52°N, 2.24°W
Report Text: EGCC 271650Z VRB02KT 7000 SCT006 BKN010 BKN018 08/08 Q1001 TEMPO BKN008
Loading
Personal Weather Stations






























Interactive Weather Map New forecast layout! Learn more

10-Day Weather Forecast

Advertisements
Track Severe Weather on mobile